sat.trackr.live / text

‹ back to catalog

PHASE 3B (AO-10)

NORAD 14129 · 1983-058B

PAYLOAD ACTIVE UNKNOWN

§ Identity

Operator
Country
GER
Launch date
1983-06-16
Launch site
FRGUI
Launch vehicle
Mass (kg)
RCS (m²)
1.01

Purposes: comms

External: N2YO · Heavens-Above · Gunter

§ Orbital elements

Epoch: 2026-05-20T04:55:53.101344Z

Period
699.46 min
Inclination
25.8960°
Eccentricity
0.6020564
Mean motion
2.05872908 rev/d
Perigee alt
4,008.9 km
Apogee alt
35,438.3 km
Semi-major
26,101.7 km
B*
0.0000e+0
RAAN
224.2131°
Arg perigee
107.9633°
Mean anomaly
323.3103°
Rev number
29,491

§ Raw data

PHASE 3B (AO-10)1 14129U 83058B   26140.20547571 -.00000279  00000+0  00000+0 0  99922 14129  25.8960 224.2131 6020564 107.9633 323.3103  2.05872908294917

JSON: /api/v1/satellites/14129 · /tle

For live sub-satellite position, see the globe view (requires WebGL).

§ Visibility from observer

Set your observer location to see the next 7 days of passes ≥ 10°. The values pass through the URL so the page stays shareable.

No JS? Fill the form by hand. The geolocation button needs JavaScript.

§ Radio — SatNOGS DB

ModeDescriptionDownlinkUplink
CW Beacon (unmodulated carrier) 145.810 MHz
CW Engineering Beacon 145.987 MHz
LSB Mode-B Transponder (inactive) 145.825 MHz–145.975 MHz 435.030 MHz–435.180 MHz

3 transmitters · refreshed weekly from db.satnogs.org